Overview Statistics Trail Chart Weather Telemetry Raw packets
 

This is the latest recevied weather packets stored in our database for station/object N1ORT. If no packets are shown the sender has not sent any weather packets the latest 10 day(s).

<< 34 35 36 37 38 39 40 >>
Time Temp. Humidity Pressure Rain* Wind** Luminosity Snow
1788379952 20.56° C 87% 1020.3 hPa 0 mm - 416 W/m² -
1788379647 20° C 86% 1020.2 hPa 0 mm - 180 W/m² -
1788379343 20° C 87% 1020.2 hPa 0 mm - 196 W/m² -
1788379038 20° C 87% 1020.3 hPa 0 mm - 191 W/m² -
1788378737 20° C 86% 1020.2 hPa 0 mm - 197 W/m² -
1788378437 20° C 85% 1020.3 hPa 0 mm - 170 W/m² -
1788378132 20.56° C 86% 1020.3 hPa 0 mm - 207 W/m² -
1788377827 20.56° C 84% 1020.6 hPa 0 mm - 234 W/m² -
1788377523 20.56° C 84% 1020.4 hPa 0 mm - 265 W/m² -
1788377221 21.11° C 82% 1020.6 hPa 0 mm - 290 W/m² -
1788376920 21.11° C 84% 1020.7 hPa 0 mm - 275 W/m² -
1788376615 21.11° C 83% 1020.7 hPa 0 mm - 320 W/m² -
1788376309 21.11° C 82% 1020.5 hPa 0 mm - 291 W/m² -
1788376005 21.67° C 81% 1020.6 hPa 0 mm - 346 W/m² -
1788375700 21.11° C 85% 1020.3 hPa 0 mm - 459 W/m² -
1788375396 20.56° C 84% 1020.6 hPa 0 mm - 403 W/m² -
1788375091 21.11° C 84% 1020.3 hPa 0 mm - 266 W/m² -
1788374786 21.11° C 83% 1020.3 hPa 0 mm - 358 W/m² -
1788374482 21.11° C 84% 1020.4 hPa 0 mm - 324 W/m² -
1788374178 20.56° C 83% 1020.4 hPa 0 mm - 441 W/m² -
1788373874 20.56° C 84% 1020.3 hPa 0 mm - 369 W/m² -
1788373570 20.56° C 85% 1020.2 hPa 0 mm - 480 W/m² -
1788373266 20.56° C 84% 1020.2 hPa 0 mm - 374 W/m² -
1788372962 21.11° C 85% 1020.3 hPa 0 mm - 409 W/m² -
1788372661 20.56° C 86% 1020.4 hPa 0 mm - 352 W/m² -

* Rain latest hour (hover to see other rain measurements)
** Current wind speed in m/s (hover to see current wind gust speed)